AXB1214 VOBL-VOTR

Flight info

Callsign AXB1214
Flight time N/A
Altitude 25000
Route AKTIM7B AKTIM V45 TTR
Aircraft B738/M-SDE2E3FGHIRWXY/LB1

Departure

Time 2026-05-05 17:31
Airport Kempegowda International Airport Bengaluru (VOBL)

Arrival

Time N/A
Airport Tiruchirappalli International Airport (VOTR)
Time Latitude Longitude Altitude Speed Heading
2026-05-05 17:31 13.22345 77.65172 5131 ft 264 kts 304°
2026-05-05 17:31 13.23373 77.63622 6183 ft 268 kts 302°
2026-05-05 17:31 13.24342 77.61970 7135 ft 275 kts 296°
2026-05-05 17:32 13.24792 77.60084 8045 ft 283 kts 269°
2026-05-05 17:32 13.24233 77.58168 9001 ft 290 kts 238°
2026-05-05 17:32 13.22750 77.56773 9884 ft 300 kts 207°
2026-05-05 17:32 13.20778 77.56199 10838 ft 303 kts 190°
2026-05-05 17:33 13.18706 77.55999 11620 ft 311 kts 180°
2026-05-05 17:33 13.16617 77.56049 12523 ft 313 kts 178°
2026-05-05 17:33 13.14436 77.56123 13344 ft 318 kts 174°
2026-05-05 17:33 13.12312 77.56720 14135 ft 321 kts 152°
2026-05-05 17:34 13.10417 77.57858 15073 ft 320 kts 148°
2026-05-05 17:34 13.08735 77.58825 15642 ft 328 kts 151°
2026-05-05 17:34 13.06524 77.59954 16545 ft 330 kts 152°
2026-05-05 17:34 13.04471 77.60987 17291 ft 334 kts 152°
2026-05-05 17:35 13.02398 77.62032 18030 ft 337 kts 152°
2026-05-05 17:35 13.00287 77.63085 18754 ft 340 kts 152°
2026-05-05 17:35 12.98129 77.64086 19437 ft 345 kts 159°
2026-05-05 17:35 12.95734 77.64732 19561 ft 369 kts 167°
2026-05-05 17:36 12.93156 77.65238 19706 ft 388 kts 167°
2026-05-05 17:36 12.90540 77.65817 19754 ft 407 kts 166°
2026-05-05 17:36 12.87732 77.66474 19952 ft 421 kts 165°
2026-05-05 17:36 12.84830 77.67149 20135 ft 435 kts 166°
2026-05-05 17:37 12.81862 77.67837 20591 ft 440 kts 166°
2026-05-05 17:37 12.78935 77.68518 21011 ft 445 kts 165°
2026-05-05 17:37 12.75991 77.69470 21440 ft 446 kts 153°
2026-05-05 17:37 12.73341 77.71086 22052 ft 443 kts 143°
2026-05-05 17:38 12.70791 77.72885 22343 ft 450 kts 144°